Probability
4 2 1 0 0 0 0 0 0 0 0 0 0 0 0 0 0 0 0 0 0 0 0 0 0 0 0 0 0 0 0 0 0 0 0 0 0 1 2 3 3 3 3 3
4 2 0 0 0 0 0 0 0 0 0 0 0 0 0 0 0 0 0 0 0 0 0 0 0 0 0 0 0 0 0 0 0 0 0 0 0 0 1 2 3 3 3 3
2 1 0 0 0 0 0 0 0 0 0 0 0 0 0 0 0 0 0 0 0 0 0 0 0 0 0 0 0 0 0 0 0 0 0 0 0 0 0 1 2 2 2 2
0 0 0 0 0 0 0 0 0 0 0 0 0 0 0 0 0 0 0 0 0 0 0 0 0 0 0 0 0 0 0 0 0 0 0 0 0 0 0 0 1 1 1 1
0 0 0 0 0 0 0 0 0 0 0 0 0 0 0 0 0 0 0 0 0 0 0 0 0 0 0 0 0 0 0 0 0 0 0 0 0 0 0 0 0 0 0 0
0 0 0 0 0 0 0 0 0 0 0 0 0 0 0 0 0 0 0 0 0 0 0 0 0 0 0 0 0 0 0 0 0 0 0 0 0 0 0 0 0 0 0 0
0 0 0 0 0 0 0 0 0 0 0 0 0 0 0 0 0 0 0 0 0 0 0 0 0 0 0 0 0 0 0 0 0 0 0 0 0 0 0 0 0 0 0 0
0 0 0 0 0 0 0 0 0 0 0 0 0 0 0 0 0 0 0 0 0 0 0 0 0 0 0 0 0 0 0 0 0 0 0 0 0 0 0 0 0 0 0 0
0 0 0 0 0 0 0 0 0 0 0 0 0 0 0 0 0 0 0 0 0 0 0 0 0 0 0 0 0 0 0 0 0 0 0 0 0 0 0 0 0 0 0 0
0 0 0 0 0 0 0 0 0 0 0 0 0 0 0 0 0 0 0 0 0 0 0 0 0 0 0 0 0 0 0 0 0 0 0 0 0 0 0 0 0 0 0 0
0 0 0 0 0 0 0 0 0 0 0 0 0 0 0 0 0 0 0 0 0 0 0 0 0 0 0 0 0 0 0 0 0 0 0 0 0 0 0 0 0 0 0 0
0 0 0 0 0 0 0 0 0 0 0 0 0 0 0 0 0 0 0 0 0 0 0 0 0 0 0 0 0 0 0 0 0 0 0 0 0 0 0 0 0 0 0 0
0 0 0 0 0 0 0 0 0 0 0 0 0 0 0 0 0 0 0 0 0 0 0 0 0 0 0 0 0 0 0 0 0 0 0 0 0 0 0 0 0 0 0 0
0 0 0 0 0 0 0 0 0 0 0 0 0 0 0 0 0 0 0 0 0 0 0 0 0 0 0 0 0 0 0 0 0 0 0 0 0 0 0 0 0 0 0 0
0 0 0 0 0 0 0 0 0 0 0 0 0 0 0 0 0 0 0 0 0 0 0 0 0 0 0 0 0 0 0 0 0 0 0 0 0 0 0 0 0 0 0 0
0 0 0 0 0 0 0 0 0 0 0 0 0 0 0 0 0 0 0 0 0 0 0 0 0 0 0 0 0 0 0 0 0 0 0 0 0 0 0 0 0 0 0 0
0 0 0 0 0 0 0 0 0 0 0 0 0 0 0 0 0 0 0 0 0 0 0 0 0 0 0 0 0 0 0 0 0 0 0 0 0 0 0 0 0 0 0 0
0 0 0 0 0 0 0 0 0 0 0 0 0 0 0 0 0 0 0 0 0 0 0 0 0 0 0 0 0 0 0 0 0 0 0 0 0 0 0 0 0 0 0 0
0 0 0 0 0 0 0 0 0 0 0 0 0 0 0 0 0 0 0 0 0 0 0 0 0 0 0 0 0 0 0 0 0 0 0 0 0 0 0 0 0 0 0 0
0 0 0 0 0 0 0 0 0 0 0 0 0 0 0 0 0 0 0 0 0 0 0 0 0 0 0 0 0 0 0 0 0 0 0 0 0 0 0 0 0 0 0 0
0 0 0 0 0 0 0 0 0 0 0 0 0 0 0 0 0 0 0 0 0 0 0 0 0 0 0 0 0 0 0 0 0 0 0 0 0 0 0 0 0 0 0 0
0 0 0 0 0 0 0 0 0 0 0 0 0 0 0 0 0 0 0 0 0 0 0 0 0 0 0 0 0 0 0 0 0 0 0 0 0 0 0 0 0 0 0 0
0 0 0 0 0 0 0 0 0 0 0 0 0 0 0 0 0 0 0 0 0 0 0 0 0 0 0 0 0 0 0 0 0 0 0 0 0 0 0 0 0 0 0 0
0 0 0 0 0 0 0 0 0 0 0 0 0 0 0 0 0 0 0 0 0 0 0 0 0 0 0 0 0 0 0 0 0 0 0 0 0 0 0 0 0 0 0 0
0 0 0 0 0 0 0 0 0 0 0 0 0 0 0 0 0 0 0 0 0 0 0 0 0 0 0 0 0 0 0 0 0 0 0 0 0 0 0 0 0 0 0 0
0 0 0 0 0 0 0 0 0 0 0 0 0 0 0 0 0 0 0 0 0 0 0 0 0 0 0 0 0 0 0 0 0 0 0 0 0 0 0 0 0 0 0 0
Wind_Speed
9 10 16 17 15 5 6 7 7 6 4 5 10 13 13 9 7 9 9 9 9 11 11 8 8 7 7 7 9 10 10 10 7 5 6 7 8 7 7 7 8 9 9 10
9 19 15 8 9 8 7 7 6 3 2 4 7 13 12 10 10 10 11 11 11 10 9 8 7 6 8 9 9 10 11 9 10 8 6 4 4 4 6 6 8 10 10 10
20 7 10 9 9 13 14 13 8 4 1 2 4 11 10 9 8 8 9 10 10 11 11 10 8 7 7 8 10 9 10 10 10 9 5 3 2 2 3 6 7 9 10 10
13 8 8 11 13 13 16 9 8 6 3 5 4 10 9 8 9 10 11 10 11 11 10 9 8 7 7 9 7 8 8 8 8 8 7 9 8 8 7 5 5 5 8 9
12 10 12 15 14 13 5 7 9 8 7 7 6 9 10 5 10 11 11 12 12 11 10 10 9 8 7 6 5 6 6 6 6 7 9 9 9 8 4 3 4 5 6 8
6 5 10 11 7 10 6 5 3 5 6 16 15 11 12 8 11 8 9 11 11 10 9 8 7 5 5 4 3 4 4 4 4 6 7 9 10 8 6 5 5 5 4 5
9 7 5 5 8 9 9 8 6 8 11 13 9 11 14 8 9 10 10 10 9 8 7 6 5 4 4 3 3 3 4 3 3 5 6 7 8 7 7 6 6 5 4 5
14 12 13 9 12 12 15 13 11 9 7 4 6 14 11 6 7 6 7 7 6 6 5 5 5 4 3 3 2 2 3 3 2 3 4 3 3 3 4 4 4 5 5 5
13 11 6 10 7 13 12 13 9 3 2 4 8 8 10 4 5 6 6 6 7 6 5 4 3 2 2 1 1 2 2 2 2 2 2 2 1 1 1 1 1 2 2 3
6 6 5 6 5 9 10 9 7 9 9 10 8 8 9 5 8 8 8 8 8 5 3 2 1 1 0 1 1 2 2 2 2 2 2 2 1 1 0 0 1 2 3 2
5 6 4 8 15 16 10 12 9 7 6 7 7 10 8 10 9 9 10 8 6 4 3 1 0 1 2 2 2 3 3 3 3 3 2 2 2 2 1 1 2 2 3 3
7 5 6 9 6 7 10 12 13 10 9 6 6 10 3 6 6 6 6 5 3 2 2 2 1 2 2 3 3 3 3 3 3 3 3 3 3 3 3 3 3 3 3 3
10 7 6 4 4 6 9 10 13 9 6 7 9 11 2 1 2 3 5 4 2 2 2 2 2 2 2 2 3 3 3 3 3 3 3 3 3 3 3 3 3 4 3 4
9 6 10 14 8 8 10 11 12 12 11 12 14 13 10 5 4 4 4 4 2 2 2 2 1 1 2 2 2 3 3 3 3 3 4 3 3 3 3 3 4 4 4 4
7 8 7 7 5 6 8 11 14 16 16 14 13 15 17 10 8 7 5 4 3 3 3 3 2 1 1 2 2 2 3 3 3 4 4 3 3 3 3 4 4 4 4 4
7 7 7 9 8 8 8 12 15 17 15 15 12 15 12 8 5 5 6 6 6 5 4 3 2 2 2 1 1 2 2 3 3 4 3 4 4 4 4 4 4 4 4 4
7 7 7 9 6 5 12 15 17 14 13 13 17 18 9 8 9 10 9 9 8 7 5 4 4 3 2 1 1 1 1 2 3 3 3 4 4 4 4 4 4 4 5 4
8 8 5 5 7 16 11 8 13 15 14 14 12 11 12 12 9 6 6 8 8 7 6 5 4 3 2 2 1 1 2 2 3 3 3 3 4 4 4 4 4 4 4 4
10 10 6 6 9 9 7 6 9 12 13 13 15 12 10 6 2 4 4 6 7 6 5 4 4 3 3 2 2 2 2 3 3 3 3 3 4 4 4 4 4 4 4 4
9 9 7 6 8 11 10 7 6 6 11 10 12 13 11 7 7 9 5 5 4 4 3 3 3 3 3 2 2 3 2 2 2 3 3 3 3 3 3 3 4 3 3 4
9 8 11 9 8 9 8 4 8 11 11 5 8 9 9 9 8 4 4 4 4 4 4 4 4 3 2 2 3 3 3 2 2 3 2 2 3 3 2 3 3 3 3 3
10 8 9 7 8 12 5 7 11 8 2 3 4 5 6 4 3 3 4 4 5 4 4 4 4 4 3 3 3 3 3 2 3 3 3 3 3 3 3 3 3 4 3 4
8 9 7 9 9 3 3 5 2 1 2 2 2 3 5 4 4 4 3 4 4 4 4 4 5 5 4 4 3 3 2 3 3 3 3 3 4 4 4 3 3 3 3 3
3 2 4 4 6 4 2 1 0 1 2 1 2 2 4 5 5 5 5 4 4 4 4 4 5 4 3 4 4 3 3 3 2 2 3 3 3 3 4 3 3 2 3 3
5 4 4 5 4 1 3 3 2 3 3 3 4 3 4 6 5 5 5 4 3 3 3 4 4 4 3 3 3 4 4 3 3 3 3 2 2 3 3 3 3 3 2 3
4 5 7 7 6 6 5 3 3 4 3 3 4 4 4 4 5 6 5 4 4 4 3 4 4 4 3 3 4 4 4 3 2 2 2 2 2 2 2 3 3 5 5 6
Wind_Direction
182 198 211 207 207 207 174 187 210 220 215 198 233 249 256 254 246 247 248 246 247 250 254 254 243 236 229 223 217 216 214 211 195 190 198 207 219 218 217 218 214 211 211 208
195 220 214 188 195 209 210 215 217 246 224 214 252 259 256 244 236 232 236 240 243 249 263 262 253 237 226 226 224 221 219 212 202 203 196 193 191 207 213 212 215 214 213 210
209 213 177 177 187 204 218 217 208 214 324 273 297 281 254 250 235 239 238 238 241 240 248 255 253 242 232 230 226 223 220 214 208 202 182 169 166 191 201 215 221 218 215 214
228 220 176 187 201 196 228 205 190 195 208 248 211 274 259 238 244 239 240 240 243 244 243 247 251 251 236 234 230 225 223 216 208 192 191 195 204 217 220 216 216 211 210 217
215 189 190 203 203 186 205 165 186 199 215 248 223 256 268 208 239 242 238 238 240 240 239 243 245 245 244 237 228 224 218 214 202 192 197 202 217 228 227 207 214 217 215 217
224 189 196 206 189 176 148 132 171 191 212 242 225 228 264 205 217 225 229 233 237 241 242 245 250 250 255 250 229 216 202 208 194 192 197 203 216 224 224 224 227 228 223 222
216 221 212 167 161 170 167 167 201 210 217 239 190 212 251 211 206 206 216 226 234 239 243 247 253 252 252 245 222 205 191 202 192 188 197 208 217 221 226 231 235 236 234 232
201 215 199 189 183 184 192 190 200 207 214 244 182 225 249 218 219 219 221 227 239 245 244 245 245 240 238 238 220 187 182 187 171 173 191 200 209 217 233 238 240 240 243 245
195 220 181 191 171 165 181 206 205 205 224 242 233 258 291 243 239 233 233 238 242 243 245 248 254 244 230 222 200 170 158 142 138 150 154 158 174 196 232 261 261 270 279 282
173 206 201 179 162 197 182 162 168 202 210 232 244 239 239 213 220 225 227 227 235 238 237 250 276 313 360 75 74 88 106 109 98 99 114 113 118 133 250 12 341 310 304 304
180 186 189 173 192 193 177 185 191 197 200 206 241 251 221 210 208 211 221 224 227 224 213 188 100 48 60 67 75 77 77 79 74 75 78 78 66 57 52 35 355 331 325 320
187 178 209 216 225 203 193 196 191 206 215 209 233 259 245 211 212 207 220 229 231 204 173 149 125 91 77 74 68 69 68 69 62 64 67 64 52 47 40 17 355 349 339 337
173 188 204 221 229 204 209 207 205 212 208 217 232 257 276 201 224 217 213 223 219 183 154 123 102 95 83 73 67 63 60 57 50 56 61 54 45 40 27 7 354 354 349 345
185 199 207 217 207 183 202 209 203 205 224 231 232 251 262 247 243 247 229 214 205 188 156 136 122 98 83 72 68 65 55 50 50 56 59 50 33 25 14 5 0 355 355 352
196 217 226 237 226 189 207 212 210 214 220 229 237 239 251 235 218 217 211 204 193 195 187 175 166 143 104 75 54 54 54 45 50 59 54 38 24 21 18 12 5 1 2 358
192 212 215 241 235 221 225 218 216 222 224 230 242 249 248 240 210 201 197 190 198 207 204 188 169 153 139 118 85 55 48 41 51 60 48 29 23 20 17 12 6 5 2 358
185 189 203 233 223 219 234 217 214 218 217 213 230 241 241 237 220 209 204 198 203 205 198 188 183 179 160 138 105 98 61 50 57 59 47 30 20 16 9 4 6 5 356 353
191 197 202 210 199 229 236 211 207 217 226 218 223 231 225 228 225 210 200 198 202 200 194 186 176 170 154 110 83 69 76 77 70 55 39 24 17 12 5 4 3 354 351 347
199 194 199 201 225 246 264 223 194 204 235 223 224 229 230 223 221 257 222 197 199 196 188 176 163 160 139 112 104 98 79 65 58 41 23 9 9 7 0 357 352 346 346 342
200 193 197 202 217 228 234 217 192 175 244 232 214 218 218 190 218 242 202 175 172 160 150 142 134 125 114 95 103 107 94 77 44 14 4 356 359 2 354 347 342 340 342 338
184 196 206 212 227 245 240 211 145 184 233 220 202 204 198 205 225 204 149 137 142 138 134 130 122 113 104 95 110 112 93 54 10 9 4 0 2 356 358 355 350 350 352 349
186 189 198 192 216 239 216 164 185 211 207 194 192 193 186 184 158 149 139 136 129 122 114 110 106 93 71 73 99 100 74 23 16 16 13 9 4 4 14 12 5 6 4 1
197 197 189 196 212 211 177 192 201 145 169 206 189 171 155 158 165 154 139 129 121 115 107 98 104 95 67 49 63 84 37 19 22 25 17 10 8 10 14 18 14 8 8 7
228 191 172 207 226 206 197 225 261 109 145 119 115 129 141 153 157 149 140 128 115 102 96 94 98 95 71 47 49 50 26 19 34 33 17 15 12 10 12 12 12 8 5 0
209 175 177 216 212 190 250 223 176 116 101 92 79 79 115 132 138 139 132 121 108 96 89 95 102 100 80 55 48 32 21 22 36 37 24 15 14 9 5 4 355 354 356 359
205 191 194 217 196 187 190 148 135 131 124 116 108 89 82 115 130 122 115 106 98 92 82 88 89 90 75 58 44 24 13 20 41 43 24 9 6 3 6 1 352 360 1 3